TimeEST,TemperatureF,Dew PointF,Humidity,Sea Level PressureIn,VisibilityMPH,Wind Direction,Wind SpeedMPH,Gust SpeedMPH,PrecipitationIn,Events,Conditions,WindDirDegrees,DateUTC
12:53 AM,41.0,25.0,53,29.98,10.0,NW,11.5,-,N/A,,Clear,320,2012-12-30 05:53:00
1:53 AM,39.9,21.9,49,30.01,10.0,NW,12.7,20.7,N/A,,Clear,310,2012-12-30 06:53:00
2:53 AM,39.0,21.9,50,30.06,10.0,WNW,11.5,-,N/A,,Clear,300,2012-12-30 07:53:00
3:53 AM,37.0,21.9,54,30.09,10.0,WNW,9.2,-,N/A,,Clear,300,2012-12-30 08:53:00
4:53 AM,35.1,21.9,59,30.10,10.0,West,4.6,-,N/A,,Clear,280,2012-12-30 09:53:00
5:53 AM,35.1,21.9,59,30.15,10.0,West,9.2,-,N/A,,Clear,280,2012-12-30 10:53:00
6:53 AM,33.1,23.0,66,30.20,10.0,West,6.9,-,N/A,,Clear,270,2012-12-30 11:53:00
7:53 AM,34.0,21.9,61,30.23,10.0,West,6.9,-,N/A,,Clear,280,2012-12-30 12:53:00
8:53 AM,37.9,19.0,47,30.28,10.0,WNW,12.7,-,N/A,,Clear,300,2012-12-30 13:53:00
9:53 AM,41.0,18.0,40,30.31,10.0,NW,15.0,21.9,N/A,,Clear,320,2012-12-30 14:53:00
10:53 AM,43.0,18.0,37,30.33,10.0,NNW,11.5,18.4,N/A,,Clear,330,2012-12-30 15:53:00
11:53 AM,44.1,18.0,35,30.33,10.0,NW,12.7,-,N/A,,Clear,310,2012-12-30 16:53:00
12:53 PM,46.0,18.0,33,30.31,10.0,NW,10.4,17.3,N/A,,Clear,320,2012-12-30 17:53:00
1:53 PM,46.9,18.0,32,30.31,10.0,West,9.2,-,N/A,,Clear,280,2012-12-30 18:53:00
2:53 PM,48.0,19.0,32,30.32,10.0,NW,6.9,-,N/A,,Clear,310,2012-12-30 19:53:00
3:53 PM,46.9,18.0,32,30.32,10.0,NW,8.1,-,N/A,,Clear,310,2012-12-30 20:53:00
4:53 PM,46.0,18.0,33,30.33,10.0,WNW,5.8,-,N/A,,Clear,300,2012-12-30 21:53:00
5:53 PM,41.0,21.0,45,30.34,10.0,Calm,Calm,-,N/A,,Clear,0,2012-12-30 22:53:00
6:53 PM,35.1,25.0,67,30.35,10.0,West,4.6,-,N/A,,Clear,280,2012-12-30 23:53:00
7:53 PM,34.0,23.0,64,30.38,10.0,SSW,6.9,-,N/A,,Clear,200,2012-12-31 00:53:00
8:53 PM,34.0,24.1,67,30.38,10.0,WSW,6.9,-,N/A,,Clear,250,2012-12-31 01:53:00
9:53 PM,30.9,23.0,72,30.39,10.0,WSW,4.6,-,N/A,,Clear,240,2012-12-31 02:53:00
10:53 PM,32.0,23.0,69,30.39,10.0,West,8.1,-,N/A,,Clear,260,2012-12-31 03:53:00
11:53 PM,30.9,24.1,76,30.38,10.0,WSW,4.6,-,N/A,,Clear,240,2012-12-31 04:53:00